Tracking 30415 objects as of 14-May-2025
HD Live streaming from Space Station
objects crossing your sky now

THORAD AGENA D DEB

Track THORAD AGENA D DEB now!
10-day predictions


NORAD ID: 5690
Int'l Code: 1970-025LV
Perigee: 1,037.8 km
Apogee: 1,110.0 km
Inclination: 100.2 °
Period: 106.5 minutes
Semi major axis: 7444 km
RCS: 0.0072 m2 (small)
Launch date: April 8, 1970
Source: United States (US)
Launch site: AIR FORCE WESTERN TEST RANGE (AFWTR)

Note: This is SATELLITE DEBRIS
Your satellite tracking list
Your tracking list is empty




NASA's NSSDC Master Catalog

Two Line Element Set (TLE):
1  5690U 70025LV  25134.23558819  .00000092  00000-0  21226-3 0  9997
2  5690 100.1929 134.4056 0048521 334.8850  41.8534 13.51500598712831
Source of the keplerian elements: AFSPC